Simultaneous Nadir Overpasses (SNOs) Predictions

Prediction of SNOs between METOP-A and TERRA Satellite Orbit:

Table of predicted SNOs for the next 14.0 days since TLE Epoch: 12/14/2019
Index Date (METOP-A) Time (METOP-A) Lat,Lon (METOP-A) SZA (METOP-A ) Date (TERRA) Time (TERRA) Lat,Lon (TERRA) SZA (TERRA ) Distance(km) Time Diff (sec)
1 12/15/2019 16:07:48 81.45, -12.35 107.69 12/15/2019 16:08:54 81.44, -12.33 107.72 1.16 66
2 12/15/2019 16:58:28 -81.44, 155.28 72.28 12/15/2019 16:58:21 -81.43, 155.16 72.31 2.48 7
3 12/18/2019 11:42:11 81.44, 54.06 107.76 12/18/2019 11:43:10 81.44, 54.18 107.80 2.11 59
4 12/18/2019 12:32:51 -81.44,-138.27 72.21 12/18/2019 12:32:37 -81.43,-138.31 72.22 0.91 14
5 12/21/2019 07:16:34 81.44, 120.44 107.77 12/21/2019 07:17:27 81.43, 120.49 107.79 1.43 53
6 12/21/2019 08:07:14 -81.44, -71.85 72.20 12/21/2019 08:06:54 -81.43, -71.97 72.23 2.26 20
7 12/24/2019 02:50:56 81.44,-173.19 107.72 12/24/2019 02:51:43 81.44,-173.01 107.75 3.09 47
8 12/24/2019 03:41:36 -81.44, -5.45 72.25 12/24/2019 03:41:10 -81.43, -5.44 72.26 0.50 26
9 12/26/2019 22:25:18 81.44,-106.44 107.64 12/26/2019 22:26:00 81.45,-106.31 107.68 2.54 42




NCC Satellite Simultaneous Nadir Overpasses (SNOs) Prediction Service
